DLH94Y EDDH-EDDF

Flight info

Callsign DLH94Y
Flight time 0h 48m
Altitude 34000
Route HABFU1C HABFU Y348 MAWEQ DCT BIGGE DCT ROLIS ROLIS5A
Aircraft A319/M-SDE3FGHIRWY/LB1

Departure

Time 2026-05-07 12:23
Airport Hamburg Helmut Schmidt Airport (EDDH)

Arrival

Time 2026-05-07 13:11
Airport Frankfurt Main Airport (EDDF)
Time Latitude Longitude Altitude Speed Heading
2026-05-07 11:40 53.63244 10.00014 51 ft 0 kts 322°
2026-05-07 12:08 53.63227 10.00033 47 ft 4 kts 339°
2026-05-07 12:09 53.63202 10.00040 49 ft 4 kts 12°
2026-05-07 12:09 53.63178 10.00022 49 ft 4 kts 39°
2026-05-07 12:09 53.63159 9.99991 47 ft 4 kts 51°
2026-05-07 12:09 53.63153 9.99978 48 ft 0 kts 51°
2026-05-07 12:13 53.63162 9.99997 47 ft 5 kts 51°
2026-05-07 12:13 53.63193 10.00062 48 ft 10 kts 51°
2026-05-07 12:14 53.63243 10.00177 51 ft 15 kts 56°
2026-05-07 12:14 53.63206 10.00250 51 ft 10 kts 179°
2026-05-07 12:14 53.63126 10.00256 51 ft 12 kts 176°
2026-05-07 12:14 53.63043 10.00237 51 ft 12 kts 213°
2026-05-07 12:15 53.62971 10.00158 51 ft 12 kts 212°
2026-05-07 12:15 53.62897 10.00079 50 ft 13 kts 212°
2026-05-07 12:15 53.62833 9.99995 50 ft 10 kts 215°
2026-05-07 12:15 53.62816 9.99977 50 ft 0 kts 213°
2026-05-07 12:16 53.62816 9.99976 50 ft 0 kts 213°
2026-05-07 12:17 53.62810 9.99970 50 ft 3 kts 213°
2026-05-07 12:17 53.62774 9.99934 48 ft 9 kts 209°
2026-05-07 12:17 53.62700 9.99868 47 ft 15 kts 208°
2026-05-07 12:17 53.62635 9.99730 47 ft 16 kts 259°
2026-05-07 12:18 53.62615 9.99553 50 ft 15 kts 258°
2026-05-07 12:18 53.62594 9.99378 51 ft 15 kts 259°
2026-05-07 12:18 53.62576 9.99203 49 ft 15 kts 258°
2026-05-07 12:18 53.62554 9.99029 51 ft 15 kts 258°
2026-05-07 12:19 53.62535 9.98855 48 ft 15 kts 259°
2026-05-07 12:19 53.62516 9.98680 51 ft 15 kts 259°
2026-05-07 12:19 53.62495 9.98505 51 ft 15 kts 259°
2026-05-07 12:19 53.62475 9.98328 49 ft 16 kts 259°
2026-05-07 12:20 53.62446 9.98153 49 ft 16 kts 245°
2026-05-07 12:20 53.62386 9.98000 50 ft 16 kts 230°
2026-05-07 12:20 53.62316 9.97860 50 ft 16 kts 230°
2026-05-07 12:20 53.62246 9.97718 50 ft 16 kts 230°
2026-05-07 12:21 53.62184 9.97569 48 ft 15 kts 251°
2026-05-07 12:21 53.62213 9.97404 48 ft 16 kts 315°
2026-05-07 12:21 53.62314 9.97358 49 ft 13 kts 30°
2026-05-07 12:21 53.62333 9.97391 48 ft 0 kts 53°
2026-05-07 12:22 53.62349 9.97428 48 ft 17 kts 53°
2026-05-07 12:22 53.62594 9.97932 48 ft 91 kts 50°
2026-05-07 12:22 53.63139 9.99024 97 ft 143 kts 50°
2026-05-07 12:23 53.63770 10.00219 878 ft 132 kts 50°
2026-05-07 12:23 53.64378 10.01377 1494 ft 140 kts 50°
2026-05-07 12:23 53.65071 10.02743 1727 ft 167 kts 51°
2026-05-07 12:23 53.65889 10.04370 2051 ft 191 kts 50°
2026-05-07 12:24 53.66790 10.06158 2605 ft 209 kts 51°
2026-05-07 12:24 53.67731 10.08032 3535 ft 206 kts 52°
2026-05-07 12:24 53.68679 10.09870 4422 ft 211 kts 41°
2026-05-07 12:24 53.70046 10.10858 5205 ft 223 kts
2026-05-07 12:25 53.71624 10.10388 5757 ft 249 kts 335°
2026-05-07 12:25 53.72931 10.08270 6339 ft 275 kts 304°
2026-05-07 12:25 53.73805 10.05330 7176 ft 284 kts 295°
2026-05-07 12:25 53.74549 10.02207 8101 ft 289 kts 291°
2026-05-07 12:26 53.74884 9.98844 9045 ft 293 kts 270°
2026-05-07 12:26 53.74632 9.95438 10049 ft 294 kts 255°
2026-05-07 12:26 53.73918 9.92181 10761 ft 304 kts 247°
2026-05-07 12:26 53.73065 9.88764 11046 ft 328 kts 247°
2026-05-07 12:27 53.72149 9.85091 11270 ft 351 kts 247°
2026-05-07 12:27 53.71176 9.81204 11656 ft 366 kts 247°
2026-05-07 12:27 53.70174 9.77228 12352 ft 370 kts 247°
2026-05-07 12:27 53.69154 9.73208 13105 ft 374 kts 247°
2026-05-07 12:28 53.68125 9.69168 13852 ft 377 kts 247°
2026-05-07 12:28 53.67082 9.65093 14552 ft 379 kts 246°
2026-05-07 12:28 53.65785 9.61203 15207 ft 383 kts 235°
2026-05-07 12:28 53.64050 9.57769 15859 ft 387 kts 225°
2026-05-07 12:29 53.61928 9.54950 16541 ft 391 kts 213°
2026-05-07 12:29 53.59552 9.52700 17203 ft 394 kts 209°
2026-05-07 12:29 53.57134 9.50491 17854 ft 397 kts 209°
2026-05-07 12:29 53.54698 9.48267 18472 ft 400 kts 209°
2026-05-07 12:30 53.52282 9.46065 19009 ft 402 kts 210°
2026-05-07 12:30 53.49818 9.43821 19552 ft 404 kts 210°
2026-05-07 12:30 53.47340 9.41561 20056 ft 407 kts 210°
2026-05-07 12:30 53.44849 9.39286 20574 ft 409 kts 209°
2026-05-07 12:31 53.42341 9.37001 21100 ft 411 kts 210°
2026-05-07 12:31 53.39820 9.34710 21588 ft 414 kts 210°
2026-05-07 12:31 53.37279 9.32406 22038 ft 417 kts 209°
2026-05-07 12:31 53.34721 9.30098 22499 ft 420 kts 208°
2026-05-07 12:32 53.32022 9.28176 22959 ft 423 kts 199°
2026-05-07 12:32 53.29152 9.26998 23394 ft 427 kts 191°
2026-05-07 12:32 53.26215 9.26144 23798 ft 429 kts 191°
2026-05-07 12:32 53.23270 9.25278 24176 ft 432 kts 191°
2026-05-07 12:33 53.17321 9.23507 24922 ft 436 kts 191°
2026-05-07 12:33 53.14324 9.22614 25272 ft 439 kts 191°
2026-05-07 12:33 53.11312 9.21718 25631 ft 441 kts 191°
2026-05-07 12:34 53.08282 9.20818 25999 ft 443 kts 191°
2026-05-07 12:34 53.05239 9.19920 26329 ft 445 kts 191°
2026-05-07 12:34 53.02182 9.19021 26638 ft 448 kts 191°
2026-05-07 12:34 52.99105 9.18113 26967 ft 450 kts 191°
2026-05-07 12:35 52.96047 9.16987 27286 ft 451 kts 198°
2026-05-07 12:35 52.93110 9.15149 27587 ft 452 kts 206°
2026-05-07 12:35 52.90318 9.12734 27864 ft 455 kts 209°
2026-05-07 12:35 52.87556 9.10292 28160 ft 457 kts 208°
2026-05-07 12:36 52.84756 9.07827 28595 ft 456 kts 208°
2026-05-07 12:36 52.81954 9.05375 29065 ft 455 kts 208°
2026-05-07 12:36 52.79157 9.02937 29538 ft 454 kts 208°
2026-05-07 12:36 52.76360 9.00509 30030 ft 453 kts 208°
2026-05-07 12:37 52.73572 8.98093 30410 ft 453 kts 208°
2026-05-07 12:37 52.70780 8.95671 30765 ft 453 kts 208°
2026-05-07 12:37 52.67994 8.93251 31133 ft 453 kts 208°
2026-05-07 12:37 52.65207 8.90831 31479 ft 453 kts 208°
2026-05-07 12:38 52.62417 8.88407 31815 ft 454 kts 208°
2026-05-07 12:38 52.59622 8.85980 32156 ft 454 kts 208°
2026-05-07 12:38 52.56825 8.83555 32500 ft 454 kts 208°
2026-05-07 12:38 52.54027 8.81136 32867 ft 455 kts 208°
2026-05-07 12:39 52.51226 8.78723 33255 ft 455 kts 208°
2026-05-07 12:39 52.48416 8.76307 33637 ft 455 kts 208°
2026-05-07 12:39 52.45610 8.73897 33980 ft 455 kts 208°
2026-05-07 12:39 52.42799 8.71490 34066 ft 457 kts 208°
2026-05-07 12:40 52.37163 8.66658 34074 ft 457 kts 208°
2026-05-07 12:40 52.31528 8.61840 34073 ft 457 kts 208°
2026-05-07 12:41 52.25584 8.58207 34070 ft 458 kts 192°
2026-05-07 12:41 52.19241 8.56999 34067 ft 460 kts 186°
2026-05-07 12:42 52.12878 8.55978 34069 ft 459 kts 186°
2026-05-07 12:42 52.06514 8.54936 34067 ft 460 kts 187°
2026-05-07 12:43 52.00186 8.53921 34071 ft 460 kts 186°
2026-05-07 12:43 51.93820 8.52907 34066 ft 460 kts 186°
2026-05-07 12:44 51.87453 8.51895 34063 ft 460 kts 186°
2026-05-07 12:44 51.81090 8.50880 34055 ft 459 kts 186°
2026-05-07 12:45 51.74728 8.49873 34058 ft 459 kts 186°
2026-05-07 12:45 51.68368 8.48875 34052 ft 459 kts 186°
2026-05-07 12:46 51.61997 8.47863 34054 ft 459 kts 186°
2026-05-07 12:46 51.56711 8.47033 34056 ft 459 kts 187°
2026-05-07 12:47 51.50348 8.46049 34049 ft 459 kts 186°
2026-05-07 12:47 51.43948 8.45062 34049 ft 459 kts 186°
2026-05-07 12:48 51.37588 8.44066 34044 ft 459 kts 187°
2026-05-07 12:48 51.31364 8.42296 34041 ft 457 kts 199°
2026-05-07 12:49 51.25512 8.38372 34038 ft 456 kts 205°
2026-05-07 12:49 51.19689 8.34329 34034 ft 456 kts 205°
2026-05-07 12:50 51.13861 8.30310 34025 ft 456 kts 204°
2026-05-07 12:50 51.08035 8.26290 34031 ft 456 kts 205°
2026-05-07 12:51 51.02214 8.22271 34039 ft 456 kts 205°
2026-05-07 12:51 50.96391 8.18280 34034 ft 455 kts 204°
2026-05-07 12:52 50.90568 8.14308 34029 ft 455 kts 204°
2026-05-07 12:52 50.84747 8.10347 34026 ft 454 kts 204°
2026-05-07 12:53 50.81883 8.08403 34006 ft 440 kts 205°
2026-05-07 12:53 50.79147 8.06544 33870 ft 427 kts 204°
2026-05-07 12:53 50.76417 8.04688 33578 ft 418 kts 205°
2026-05-07 12:53 50.73795 8.02906 33170 ft 413 kts 204°
2026-05-07 12:54 50.71172 8.01126 32727 ft 408 kts 205°
2026-05-07 12:54 50.68574 7.99366 32277 ft 404 kts 204°
2026-05-07 12:54 50.66005 7.97633 31827 ft 400 kts 205°
2026-05-07 12:54 50.63455 7.95914 31393 ft 396 kts 204°
2026-05-07 12:55 50.60931 7.94215 30981 ft 393 kts 205°
2026-05-07 12:55 50.58425 7.92527 30542 ft 390 kts 204°
2026-05-07 12:55 50.55942 7.90859 30130 ft 387 kts 204°
2026-05-07 12:55 50.53450 7.89186 29163 ft 394 kts 204°
2026-05-07 12:56 50.50898 7.87472 28184 ft 402 kts 204°
2026-05-07 12:56 50.48296 7.85761 27224 ft 409 kts 200°
2026-05-07 12:56 50.45498 7.84851 26312 ft 416 kts 183°
2026-05-07 12:56 50.42608 7.85299 25425 ft 422 kts 166°
2026-05-07 12:57 50.39901 7.87115 24563 ft 427 kts 148°
2026-05-07 12:57 50.37510 7.89915 23721 ft 430 kts 142°
2026-05-07 12:57 50.35191 7.92781 22775 ft 432 kts 142°
2026-05-07 12:57 50.32800 7.95754 21814 ft 434 kts 142°
2026-05-07 12:58 50.30461 7.98663 20908 ft 435 kts 142°
2026-05-07 12:58 50.28091 8.01604 20017 ft 436 kts 142°
2026-05-07 12:58 50.25860 8.04801 19148 ft 436 kts 130°
2026-05-07 12:58 50.23989 8.08530 18373 ft 434 kts 128°
2026-05-07 12:59 50.22155 8.12253 17559 ft 431 kts 127°
2026-05-07 12:59 50.20334 8.15965 16760 ft 430 kts 127°
2026-05-07 12:59 50.18517 8.19660 15983 ft 428 kts 127°
2026-05-07 12:59 50.16702 8.23341 15224 ft 427 kts 128°
2026-05-07 13:00 50.14891 8.27004 14483 ft 425 kts 127°
2026-05-07 13:00 50.13084 8.30644 13747 ft 424 kts 127°
2026-05-07 13:00 50.11389 8.34378 12933 ft 422 kts 117°
2026-05-07 13:00 50.10553 8.38710 12152 ft 418 kts 94°
2026-05-07 13:01 50.10835 8.43160 11395 ft 413 kts 74°
2026-05-07 13:01 50.11695 8.47405 10682 ft 408 kts 69°
2026-05-07 13:01 50.12708 8.51465 10313 ft 393 kts 66°
2026-05-07 13:01 50.13723 8.55244 10061 ft 364 kts 66°
2026-05-07 13:02 50.14661 8.58753 9813 ft 339 kts 66°
2026-05-07 13:02 50.15510 8.62055 9540 ft 318 kts 67°
2026-05-07 13:02 50.16281 8.65186 9273 ft 300 kts 68°
2026-05-07 13:02 50.16998 8.68174 9004 ft 290 kts 68°
2026-05-07 13:03 50.17697 8.71111 8668 ft 288 kts 68°
2026-05-07 13:03 50.18388 8.74029 8152 ft 285 kts 68°
2026-05-07 13:03 50.19071 8.76912 7630 ft 282 kts 68°
2026-05-07 13:03 50.19644 8.79826 7121 ft 280 kts 82°
2026-05-07 13:04 50.19691 8.82823 6625 ft 273 kts 85°
2026-05-07 13:04 50.20074 8.85669 6104 ft 265 kts 74°
2026-05-07 13:04 50.20153 8.88496 5584 ft 261 kts 102°
2026-05-07 13:04 50.19368 8.90984 5114 ft 254 kts 134°
2026-05-07 13:05 50.17953 8.92380 4981 ft 231 kts 168°
2026-05-07 13:05 50.16389 8.92372 4994 ft 226 kts 195°
2026-05-07 13:05 50.14934 8.91501 4989 ft 223 kts 213°
2026-05-07 13:05 50.13722 8.90024 4994 ft 221 kts 230°
2026-05-07 13:06 50.12846 8.88098 4993 ft 213 kts 246°
2026-05-07 13:06 50.12309 8.85979 4975 ft 211 kts 252°
2026-05-07 13:06 50.11812 8.83864 4752 ft 210 kts 253°
2026-05-07 13:06 50.11310 8.81732 4479 ft 210 kts 253°
2026-05-07 13:07 50.10800 8.79568 4181 ft 210 kts 252°
2026-05-07 13:07 50.10294 8.77424 3875 ft 211 kts 252°
2026-05-07 13:07 50.09793 8.75304 3571 ft 212 kts 253°
2026-05-07 13:07 50.09283 8.73148 3264 ft 212 kts 252°
2026-05-07 13:08 50.08781 8.71028 2957 ft 205 kts 252°
2026-05-07 13:08 50.08297 8.68992 2695 ft 195 kts 252°
2026-05-07 13:08 50.07842 8.67077 2391 ft 182 kts 252°
2026-05-07 13:08 50.07419 8.65295 2140 ft 170 kts 252°
2026-05-07 13:09 50.07020 8.63617 1907 ft 159 kts 252°
2026-05-07 13:09 50.06656 8.62087 1676 ft 144 kts 253°
2026-05-07 13:09 50.06319 8.60678 1455 ft 135 kts 253°
2026-05-07 13:09 50.06000 8.59339 1209 ft 130 kts 252°
2026-05-07 13:10 50.05690 8.58062 1013 ft 125 kts 251°
2026-05-07 13:10 50.05366 8.56747 886 ft 133 kts 251°
2026-05-07 13:10 50.05068 8.55410 690 ft 127 kts 250°
2026-05-07 13:10 50.04770 8.54138 530 ft 124 kts 250°
2026-05-07 13:11 50.04467 8.52875 366 ft 123 kts 249°
2026-05-07 13:11 50.04205 8.51790 334 ft 91 kts 250°
2026-05-07 13:11 50.04010 8.50984 328 ft 69 kts 249°
2026-05-07 13:11 50.03895 8.50542 323 ft 28 kts 239°
2026-05-07 13:12 50.03796 8.50325 320 ft 22 kts 224°
2026-05-07 13:12 50.03695 8.50192 319 ft 16 kts 206°
2026-05-07 13:12 50.03632 8.50215 323 ft 6 kts 126°
2026-05-07 13:12 50.03635 8.50316 325 ft 12 kts 70°
2026-05-07 13:13 50.03665 8.50437 324 ft 11 kts 70°
2026-05-07 13:13 50.03695 8.50563 327 ft 14 kts 69°
2026-05-07 13:13 50.03733 8.50720 331 ft 15 kts 69°
2026-05-07 13:13 50.03769 8.50870 331 ft 14 kts 69°
2026-05-07 13:14 50.03802 8.51009 332 ft 14 kts 70°
2026-05-07 13:14 50.03836 8.51150 336 ft 14 kts 69°
2026-05-07 13:14 50.03872 8.51302 333 ft 16 kts 70°
2026-05-07 13:14 50.03912 8.51464 334 ft 16 kts 69°
2026-05-07 13:15 50.03951 8.51628 336 ft 16 kts 70°
2026-05-07 13:15 50.03989 8.51792 334 ft 16 kts 70°
2026-05-07 13:15 50.04026 8.51953 336 ft 15 kts 71°
2026-05-07 13:15 50.04063 8.52105 340 ft 15 kts 69°
2026-05-07 13:16 50.04104 8.52271 346 ft 17 kts 68°
2026-05-07 13:16 50.04142 8.52433 353 ft 15 kts 71°
2026-05-07 13:16 50.04181 8.52584 351 ft 16 kts 69°
2026-05-07 13:16 50.04220 8.52755 355 ft 18 kts 71°
2026-05-07 13:17 50.04267 8.52951 353 ft 21 kts 70°
2026-05-07 13:17 50.04321 8.53179 366 ft 23 kts 69°
2026-05-07 13:17 50.04375 8.53405 373 ft 22 kts 69°
2026-05-07 13:17 50.04404 8.53644 375 ft 24 kts 83°
2026-05-07 13:18 50.04423 8.53931 375 ft 29 kts 84°
2026-05-07 13:18 50.04443 8.54230 375 ft 28 kts 84°
2026-05-07 13:18 50.04449 8.54497 368 ft 24 kts 102°
2026-05-07 13:18 50.04355 8.54734 360 ft 28 kts 141°
2026-05-07 13:19 50.04173 8.54850 355 ft 22 kts 160°
2026-05-07 13:19 50.04091 8.54897 353 ft 9 kts 160°
2026-05-07 13:19 50.04031 8.54931 355 ft 10 kts 158°
2026-05-07 13:19 50.04021 8.55037 353 ft 13 kts 68°
2026-05-07 13:20 50.04059 8.55186 356 ft 17 kts 69°
2026-05-07 13:20 50.04104 8.55384 352 ft 22 kts 71°
2026-05-07 13:20 50.04165 8.55628 352 ft 26 kts 70°
2026-05-07 13:20 50.04228 8.55894 360 ft 26 kts 70°
2026-05-07 13:21 50.04295 8.56071 356 ft 16 kts 14°
2026-05-07 13:21 50.04398 8.56029 361 ft 15 kts 355°
2026-05-07 13:21 50.04459 8.56148 361 ft 15 kts 70°
2026-05-07 13:21 50.04490 8.56278 357 ft 2 kts 70°
2026-05-07 13:22 50.04496 8.56303 356 ft 3 kts 66°
2026-05-07 13:22 50.04505 8.56335 361 ft 4 kts 69°
2026-05-07 13:22 50.04512 8.56366 356 ft 2 kts 69°
2026-05-07 13:22 50.04515 8.56388 359 ft 2 kts 88°
2026-05-07 13:23 50.04504 8.56401 358 ft 2 kts 160°
2026-05-07 13:23 50.04487 8.56408 359 ft 3 kts 165°
2026-05-07 13:23 50.04464 8.56422 358 ft 4 kts 153°
2026-05-07 13:23 50.04453 8.56431 358 ft 0 kts 155°